TimeEST,TemperatureF,Dew PointF,Humidity,Sea Level PressureIn,VisibilityMPH,Wind Direction,Wind SpeedMPH,Gust SpeedMPH,PrecipitationIn,Events,Conditions,WindDirDegrees,DateUTC
12:53 AM,39.9,25.0,55,29.96,10.0,WNW,9.2,-,N/A,,Clear,300,2013-03-01 05:53:00
1:53 AM,39.2,26.6,61,29.95,10.0,NW,8.1,-,N/A,,Clear,310,2013-03-01 06:53:00
2:53 AM,37.0,26.1,65,29.96,10.0,WNW,5.8,-,N/A,,Clear,290,2013-03-01 07:53:00
3:53 AM,35.1,26.1,70,29.96,10.0,WNW,5.8,-,N/A,,Clear,290,2013-03-01 08:53:00
4:53 AM,35.1,26.1,70,29.96,10.0,WNW,4.6,-,N/A,,Clear,300,2013-03-01 09:53:00
5:53 AM,35.6,26.6,70,29.97,10.0,WNW,4.6,-,N/A,,Clear,300,2013-03-01 10:53:00
6:53 AM,32.0,24.8,75,29.97,10.0,Calm,Calm,-,N/A,,Clear,0,2013-03-01 11:53:00
7:53 AM,35.1,27.0,72,29.98,10.0,WNW,3.5,-,N/A,,Clear,290,2013-03-01 12:53:00
8:53 AM,39.9,27.0,60,30.00,10.0,NW,6.9,-,N/A,,Clear,320,2013-03-01 13:53:00
9:53 AM,44.1,27.0,51,29.99,10.0,WNW,3.5,-,N/A,,Clear,290,2013-03-01 14:53:00
10:53 AM,48.0,26.1,42,29.98,10.0,NNW,5.8,-,N/A,,Clear,340,2013-03-01 15:53:00
11:53 AM,50.0,25.0,38,29.96,10.0,Calm,Calm,-,N/A,,Clear,0,2013-03-01 16:53:00
12:53 PM,52.0,27.0,38,29.94,10.0,West,9.2,-,N/A,,Clear,270,2013-03-01 17:53:00
1:53 PM,54.0,27.0,35,29.90,10.0,NW,9.2,16.1,N/A,,Scattered Clouds,310,2013-03-01 18:53:00
2:53 PM,53.1,28.0,38,29.88,10.0,WSW,5.8,-,N/A,,Scattered Clouds,250,2013-03-01 19:53:00
3:53 PM,54.0,28.0,37,29.88,10.0,West,6.9,-,N/A,,Mostly Cloudy,270,2013-03-01 20:53:00
4:53 PM,53.1,28.9,40,29.89,10.0,West,12.7,-,N/A,,Overcast,260,2013-03-01 21:53:00
5:53 PM,52.0,28.9,41,29.90,10.0,West,10.4,-,N/A,,Overcast,270,2013-03-01 22:53:00
6:53 PM,50.0,28.9,44,29.92,10.0,West,11.5,-,N/A,,Overcast,260,2013-03-01 23:53:00
7:53 PM,46.0,28.9,51,29.95,10.0,WNW,15.0,-,N/A,,Clear,290,2013-03-02 00:53:00
8:53 PM,42.8,28.4,57,29.96,10.0,WNW,9.2,-,N/A,,Clear,300,2013-03-02 01:53:00
9:53 PM,41.0,28.0,60,29.98,10.0,WNW,8.1,-,N/A,,Clear,290,2013-03-02 02:53:00
10:53 PM,39.0,27.0,62,29.98,10.0,West,5.8,-,N/A,,Clear,270,2013-03-02 03:53:00
11:53 PM,37.0,28.0,70,29.97,10.0,WSW,4.6,-,N/A,,Clear,250,2013-03-02 04:53:00